{"data":{"norad_id":62698,"intl_designator":"2025-009CT","name":"ICEYE-X42","alt_names":[],"object_type":"PAYLOAD","status":"ACTIVE","operator":null,"country":"UAE","launch_date":"2025-01-14","launch_site_code":"AFWTR","launch_vehicle":null,"mission":null,"orbit_class":"UNKNOWN","rcs_meters":null,"size_class":null,"mass_kg":null,"dimensions":null,"purposes":[],"wikipedia_slug":null,"has_3d_model":false,"image_url":null,"decayed_at":null,"tle_current":{"epoch":"2026-09-22T17:34:18.658560Z","epoch_age_seconds":126762,"freshness":"FRESH","line1":"1 62698U 25009CT  26265.73216040  .00001045  00000+0  10902-3 0  9995","line2":"2 62698  97.7409 342.2733 0001321 103.4604 256.6762 14.91840780 91835","mean_motion":14.9184078,"eccentricity":0.0001321,"inclination_deg":97.7409,"raan_deg":342.2733,"arg_perigee_deg":103.4604,"mean_anomaly_deg":256.6762,"bstar":0.00010902,"rev_number":9183,"period_min":96.525046057529,"perigee_km":591.2751934271,"apogee_km":593.11675539894,"semimajor_km":6970.332974413,"source":"CELESTRAK","updated_at":"2026-09-23T09:00:21.581823Z"}}}